This is the latest recevied weather packets stored in our database for station/object K9ZOG. If no packets are shown the sender has not sent any weather packets the latest 10 day(s).
| Time | Temp. | Humidity | Pressure | Rain* | Wind** | Luminosity | Snow |
|---|---|---|---|---|---|---|---|
| 1778089455 | 11.67° C | 40% | 1013.7 hPa | 0 mm | - | 486 W/m² | - |
| 1778089153 | 11.11° C | 41% | 1013.7 hPa | 0 mm | - | 583 W/m² | - |
| 1778088855 | 11.11° C | 40% | 1013.7 hPa | 0 mm | - | 842 W/m² | - |
| 1778088552 | 11.11° C | 40% | 1013.8 hPa | 0 mm | - | 865 W/m² | - |
| 1778088255 | 11.11° C | 39% | 1013.8 hPa | 0 mm | - | 466 W/m² | - |
| 1778087953 | 11.67° C | 44% | 1013.9 hPa | 0 mm | - | 415 W/m² | - |
| 1778087652 | 11.67° C | 43% | 1013.9 hPa | 0 mm | - | 241 W/m² | - |
| 1778087361 | 11.11° C | 44% | 1014 hPa | 0 mm | - | 234 W/m² | - |
| 1778087054 | 11.11° C | 47% | 1013.9 hPa | 0 mm | - | 182 W/m² | - |
| 1778086753 | 11.11° C | 44% | 1013.9 hPa | 0 mm | - | 230 W/m² | - |
| 1778086453 | 11.11° C | 46% | 1013.8 hPa | 0 mm | - | 217 W/m² | - |
| 1778085877 | 11.11° C | 46% | 1013.9 hPa | 0 mm | - | 252 W/m² | - |
| 1778085553 | 11.67° C | 43% | 1013.9 hPa | 0 mm | - | 206 W/m² | - |
| 1778085252 | 11.67° C | 45% | 1013.8 hPa | 0 mm | - | 258 W/m² | - |
| 1778084952 | 11.67° C | 39% | 1013.7 hPa | 0 mm | - | 250 W/m² | - |
| 1778084653 | 11.67° C | 40% | 1013.7 hPa | 0 mm | - | 323 W/m² | - |
| 1778084353 | 11.67° C | 40% | 1013.7 hPa | 0 mm | - | 275 W/m² | - |
| 1778084054 | 11.67° C | 40% | 1013.7 hPa | 0 mm | - | 328 W/m² | - |
| 1778083754 | 11.67° C | 41% | 1013.7 hPa | 0 mm | - | 610 W/m² | - |
| 1778083453 | 11.67° C | 39% | 1013.7 hPa | 0 mm | - | 732 W/m² | - |
| 1778083154 | 11.67° C | 41% | 1013.7 hPa | 0 mm | - | 821 W/m² | - |
| 1778082852 | 11.11° C | 41% | 1013.7 hPa | 0 mm | - | 793 W/m² | - |
| 1778082552 | 11.11° C | 41% | 1013.7 hPa | 0 mm | - | 708 W/m² | - |
| 1778082253 | 11.11° C | 39% | 1013.7 hPa | 0 mm | - | 475 W/m² | - |
| 1778081953 | 11.11° C | 40% | 1013.7 hPa | 0 mm | - | 523 W/m² | - |
* Rain latest hour (hover to see other rain measurements)
** Current wind speed in m/s (hover to see current wind gust speed)